Location: Concord
(42.4605°N, 71.3489°W)
Time: 17:03:56
(UTC-04:00)

ISS - Pass Details

Date: 12 March 2026
Orbit: 416 x 424 km, 51.6° (Epoch: 11 April)

Event Time Altitude Azimuth Distance (km) Brightness Sun altitude
Rises 20:09:46 0° 236° (WSW) 2,373 0.8 -15.7°
Maximum altitude 20:15:15 84° 324° (NW) 431 -3.8 -16.7°
Enters shadow 20:16:36 34° 52° (NE) 717 -2.9 -17.0°
